User: anonymous
Location: Irma
(52.9170°N, 111.2330°W)
Time: 02:43:16
(UTC-06:00)
Language:

deb Chang Zheng 4 - Orbit

View from above orbital plane
View from above orbital plane
View from above satellite
View from above satellite

Ground track
Ground track

The orbit data is extracted from the following two-line orbital elements,

1 20847U 90081K   14293.50338953  .00017857  00000-0  30989-2 0  2165
2 20847 098.5767 103.0955 0021940 266.7258 161.6351 14.68109521262572
Epoch (UTC): 20 October 2014 12:04:52
Eccentricity: 0.0021940
inclination: 98.5767°
perigee height: 651 km
apogee height: 682 km
right ascension of ascending node: 103.0955°
argument of perigee: 266.7258°
revolutions per day: 14.68109521
mean anomaly at epoch: 161.6351°
orbit number at epoch: 26257

The dashed part of the orbit path shows where the satellite is in the earth's shadow,  

DLR